CZ-6A DEB, 64659

Orbit data source: Space-Track

CZ-6A DEB, 64659 is space debris in LEO originally from a launch on Tue, 06 Aug 2024 UTC launched from the Taiyaun Space Center, China (TSC). Debris objects in space refer to the collection of defunct objects orbiting the Earth. Examples of debris include non-operational satellites, rocket bodies, and fragments generated from explosions, collisions, or faulty payload assembly.

Loading next visibility...
Identifier
64659, 2024-140AEZ
Orbit
LEO
Country
Flag of CNCN / PRC
Related business
Manufacturer
SAST
Mission
Spacecraft
Bus & Motor
Unknown
Mass
Unknown
Launch date (UTC)
2024-08-06 (1 year ago)
Launch vehicle
Unknown
Launch site
Taiyaun Space Center, China (TSC)
Object type
Payload
Rocket body
Debris
Shape & HBR
Unknown shape, 0.1 m
Radar Cross Section
Small (<0.1 m²)

Expand to show TLE details & history
Last TLE update: 9 hours ago

TLE from 9 hours ago
0 CZ-6A DEB
1 64659U 24140AEZ 25351.27548314  .00002497  00000-0  47311-3 0  9992
2 64659  88.9108 286.1502 0103963 144.7582 216.0565 14.60518008 61176
Epoch: 2025-12-17T06:36Z
TLE epoch observation values (Epoch: 2025-12-17T06:36:41.743Z)
Latitude
0.00003°
Longitude
100.82859°
Altitude
754.307 km
Speed
7.446 km/s
True Right ascension
19h 04m 36s
True Declination
0° 00' 00"
Sunlit
Object was in daylight at epoch
Visualization orbit readout
Latitude
Unknown
Longitude
Unknown
Altitude
Unknown
Speed
Unknown
Apparent Right ascension
Unknown
Apparent Declination
Unknown
Sunlit
N/A
Visualization observer readout
Local Sidereal Time
14:48:54
Azimuth
Unknown
Elevation
Unknown
Doppler factor
Unknown
Orbital elements
Apogee altitude
761.861 km
Perigee altitude
614.929 km
Semi-major axis
7,066.532 km
Eccentricity
0.0104
Inclination
88.9108°
RAAN
286.1502°
Arg. of periapsis
144.7582°
True anomaly
215.36261°
Mean anomaly
216.0565°
Eccentric anomaly
215.70883°
Mean motion
3.65371 °/min
Orbital period
98.53 mins
BSTAR
0.00047311
Loading maneuver chart data...
Computing Atmospheric mass density...
Loading historical data...
Loading historical data...
Loading historical data...
Loading historical data...
Loading historical data...
Loading historical data...
Loading historical data...

Documentation

Showing up to 5 results
|